Weather History for Newburgh, NY

Change the Weather History Date:

Sunday, March 2, 2014

  Actual Average Record
Temperature  
Mean Temperature 30 °F -  
Max Temperature 35 °F 40 °F 63 °F (1991)
Min Temperature 23 °F 23 °F 3 °F (1993)
Degree Days  
Heating Degree Days 36    
Moisture  
Dew Point 19 °F    
Average Humidity 64    
Maximum Humidity 69    
Minimum Humidity 56    
Precipitation  
Precipitation 0.00 in - - ()
Sea Level Pressure  
Sea Level Pressure 30.04 in    
Wind  
Wind Speed 3 mph (NNW)    
Max Wind Speed 12 mph    
Max Gust Speed -    
Visibility 12 miles    
Events      
Averages and records for this station are not official NWS values.
T = Trace of Precipitation, MM = Missing Value Source: NWS Daily Summary

Daily Weather History Graph

Daily Weather History Graph

Search for Another Location

Airport:

Trip Planner

Search our weather history database for the weather conditions in past years. The results will help you decide how hot, cold, wet, or windy it might be!

Date:

Astronomy

Mar. 02, 2014 Rise Set
Actual Time 6:29 AM EST 5:48 PM EST
Civil Twilight 6:01 AM EST 6:15 PM EST
Nautical Twilight 5:29 AM EST 6:48 PM EST
Astronomical Twilight 4:57 AM EST 7:20 PM EST
Moon 6:57 AM EST (3/2) 7:43 PM EST (3/2)
Length of Visible Light 12h 14m
Length of Day
11h 18m
Waxing Crescent, 3% of the Moon is Illuminated
Mar 2
Waxing Crescent
Mar 8
First Quarter
Mar 16
Full
Mar 23
Last Quarter
Mar 30
New

Hourly Weather History & Observations

Time (EST) Temp. Windchill Dew Point Humidity Pressure Visibility Wind Dir Wind Speed Gust Speed Precip Events Conditions
12:45 AM 28.4 °F - 19.4 °F 69% 30.11 in 10.0 mi Calm Calm - N/A   Overcast
1:45 AM 28.4 °F - 19.4 °F 69% 30.09 in 10.0 mi Calm Calm - N/A   Overcast
3:45 AM 28.4 °F - 19.4 °F 69% 30.06 in 10.0 mi Calm Calm - N/A   Overcast
4:45 AM 30.2 °F - 19.4 °F 64% 30.06 in 10.0 mi Calm Calm - N/A   Overcast
5:45 AM 30.2 °F - 19.4 °F 64% 30.05 in 7.0 mi Calm Calm - N/A   Overcast
6:45 AM 30.2 °F - 19.4 °F 64% 30.05 in 7.0 mi Calm Calm - N/A   Overcast
7:45 AM 30.2 °F 22.6 °F 21.2 °F 69% 30.07 in 10.0 mi West 8.1 mph - N/A   Overcast
8:45 AM 32.0 °F 26.4 °F 21.2 °F 64% 30.08 in 10.0 mi West 5.8 mph - N/A   Overcast
9:45 AM 32.0 °F 24.8 °F 23.0 °F 69% 30.08 in 15.0 mi WNW 8.1 mph - N/A   Overcast
12:45 PM 33.8 °F - 21.2 °F 60% 30.02 in 15.0 mi Calm Calm - N/A   Mostly Cloudy
1:45 PM 33.8 °F 30.8 °F 21.2 °F 60% 30.01 in 20.0 mi Variable 3.5 mph - N/A   Mostly Cloudy
2:45 PM 35.6 °F 31.7 °F 23.0 °F 60% 30.00 in 15.0 mi Variable 4.6 mph - N/A   Mostly Cloudy
3:45 PM 35.6 °F 27.5 °F 21.2 °F 56% 30.01 in 15.0 mi WNW 11.5 mph - N/A   Mostly Cloudy
4:45 PM 33.8 °F 25.3 °F 21.2 °F 60% 30.01 in 15.0 mi West 11.5 mph - N/A   Mostly Cloudy
5:45 PM 33.8 °F 28.6 °F 19.4 °F 56% 30.02 in 15.0 mi West 5.8 mph - N/A   Mostly Cloudy
6:45 PM 30.2 °F 24.3 °F 19.4 °F 64% 30.02 in 10.0 mi Variable 5.8 mph - N/A   Overcast
7:45 PM 28.4 °F 18.5 °F 17.6 °F 64% 30.03 in 10.0 mi NE 11.5 mph - N/A   Mostly Cloudy
8:45 PM 26.6 °F 16.2 °F 15.8 °F 64% 30.03 in 10.0 mi NE 11.5 mph - N/A   Overcast
9:45 PM 24.8 °F 15.3 °F 15.8 °F 69% 30.03 in 10.0 mi NE 9.2 mph - N/A   Overcast
10:45 PM 24.8 °F 16.9 °F 15.8 °F 69% 30.04 in 10.0 mi NNE 6.9 mph - N/A   Overcast
11:45 PM 23.0 °F 15.8 °F 14.0 °F 68% 30.04 in 10.0 mi ENE 5.8 mph - N/A   Overcast